Location: Cork
(51.8990°N, 8.4960°W)
Time: 11:06:17
(UTC+01:00)

Iridium 66 - Visible Passes

Search period start: 19 April 2014 00:00
Search period end: 29 April 2014 00:00
Orbit: 776 x 779 km, 86.4° (Epoch: 17 April)

Date Brightness Start Highest point End Pass type
(mag) Time Alt. Az. Time Alt. Az. Time Alt. Az.
19 Apr 8.5 00:08:44 10° NW 00:11:52 16° WNW 00:15:00 10° WSW visible
19 Apr 6.3 21:53:09 10° N 21:58:16 52° E 22:02:46 13° SSE visible
19 Apr 7.9 23:34:25 10° NNW 23:38:41 26° W 23:42:57 10° SW visible
20 Apr 6.9 21:19:51 10° NNE 21:24:32 32° ENE 21:29:10 10° SE visible
20 Apr 7.1 23:00:29 10° NNW 23:05:23 42° W 23:10:14 10° SSW visible
21 Apr 6.3 22:26:46 10° N 22:31:58 71° W 22:37:09 10° S visible
22 Apr 8.7 00:09:50 10° NW 00:11:43 12° WNW 00:13:36 10° W visible
22 Apr 6.0 21:53:12 10° N 21:58:26 71° E 22:03:38 10° SSE visible
22 Apr 8.3 23:34:56 10° NNW 23:38:36 20° WNW 23:42:16 10° WSW visible
23 Apr 6.5 21:19:48 10° N 21:24:46 43° ENE 21:29:43 10° SSE visible
23 Apr 7.7 23:00:48 10° NNW 23:05:22 32° W 23:09:55 10° SW visible
24 Apr 6.8 22:26:58 10° NNW 22:32:01 52° W 22:37:03 10° SSW visible
25 Apr 6.1 21:53:18 10° N 21:58:33 86° W 22:03:46 10° S visible
25 Apr 8.7 23:35:41 10° NW 23:38:28 15° WNW 23:41:15 10° WSW visible
26 Apr 6.2 21:19:48 10° N 21:24:58 58° E 21:30:05 10° SSE visible
26 Apr 8.2 23:01:13 10° NNW 23:05:18 24° WNW 23:09:22 10° SW visible
27 Apr 7.4 22:27:13 10° NNW 22:32:01 38° W 22:36:48 10° SSW visible
28 Apr 6.5 21:53:27 10° N 21:58:37 64° W 22:03:45 10° S visible
28 Apr 9.0 23:37:11 10° WNW 23:38:16 11° WNW 23:39:22 10° W visible
